Home   Weather   Virginia Beach   Past weeks

Flag for USA Past Weather in Virginia Beach, Virginia, USA — Yesterday and Last 2 Weeks

Now
66 °F

Mostly cloudy.


Feels Like: 66 °F
Forecast: 60 / 74 °F
Wind: 6 mph from Northwest

Location: Virginia Beach - Oceana

Current Time: Apr 25, 2017 at 6:33:11 pm

Latest Report: Apr 25, 2017 at 5:56 pm


Visibility: 10 mi

Pressure: 29.61 "Hg

Humidity: 84%

Dew Point: 61 °F

Location of Virginia BeachLocation

Past Weather in Virginia Beach — Graph

°F

Virginia Beach Temperature Yesterday

Maximum temperature yesterday: 62 °F (at 12:56 pm)
Minimum temperature yesterday: 53 °F (at 12:22 am)
Average temperature yesterday: 58 °F

High & Low Weather Summary for the Past Weeks

 TemperatureHumidityPressure
High86 °F (Apr 21, 1:56 pm)97% (Apr 24, 9:56 pm)30.41 "Hg (Apr 24, 9:56 pm)
Low44 °F (Apr 14, 4:56 am)27% (Apr 10, 4:56 pm)29.58 "Hg (Apr 25, 8:35 am)
Average64 °F73%30.10 "Hg
* Reported Apr 10 4:56 pm — Apr 25 4:56 pm, Virginia Beach, Weather by CustomWeather, © 2017

Note: Actual official high and low records may vary slightly from our data, if they occured in-between our weather recording intervals... More about our weather records

Advertising

Virginia Beach Weather History for the Previous 24 Hours

Scroll right to see more
 ConditionsComfort  
Time TempWeatherWind HumidityBarometerVisibility
4:56 pm
Tue, Apr 25
66 °FBroken clouds.7 mph81%29.60 "Hg10 mi
4:13 pm65 °FCloudy.7 mph85%29.60 "Hg10 mi
3:56 pm65 °FLight rain. Mostly cloudy.6 mph85%29.60 "Hg10 mi
2:56 pm67 °FPartly sunny.7 mph76%29.62 "Hg10 mi
1:56 pm70 °FPartly sunny.14 mph71%29.65 "Hg10 mi
12:56 pm68 °FPartly sunny.12 mph76%29.66 "Hg10 mi
11:56 am69 °FPartly sunny.7 mph73%29.65 "Hg10 mi
10:56 am69 °FBroken clouds.13 mph73%29.65 "Hg10 mi
9:56 am69 °FBroken clouds.13 mph81%29.62 "Hg10 mi
9:30 am64 °FBroken clouds.10 mph90%29.61 "Hg8 mi
8:56 am62 °FLow clouds.20 mph93%29.60 "Hg7 mi
8:35 am62 °FFog.23 mph93%29.58 "Hg6 mi
7:56 am61 °FLight rain. Fog.20 mph93%29.60 "Hg3 mi
7:16 am60 °FFog.18 mph93%29.60 "Hg6 mi
6:56 am60 °FLight rain. Fog.22 mph93%29.61 "Hg4 mi
5:56 am59 °FMostly cloudy.18 mph96%29.65 "Hg8 mi
4:56 am60 °FLight rain. Mostly cloudy.20 mph93%29.67 "Hg10 mi
4:30 am59 °FLight rain. Fog.15 mph93%29.67 "Hg5 mi
3:56 am60 °FLight rain. Overcast.17 mph93%29.70 "Hg9 mi
3:37 am60 °FLight rain. Fog.16 mph90%29.71 "Hg4 mi
2:56 am62 °FOvercast.17 mph86%29.72 "Hg10 mi
1:56 am60 °FLight rain. Fog.12 mph90%29.77 "Hg6 mi
12:56 am60 °FLight rain. Mostly cloudy.13 mph86%29.80 "Hg10 mi
11:56 pm
Mon, Apr 24
61 °FOvercast.14 mph87%29.80 "Hg10 mi
10:56 pm59 °FMostly cloudy.8 mph93%29.83 "Hg10 mi
9:56 pm58 °FMostly cloudy.9 mph97%29.85 "Hg9 mi
9:15 pm60 °FMostly cloudy.12 mph93%29.84 "Hg10 mi
8:56 pm59 °FPartly cloudy.6 mph93%29.85 "Hg9 mi
7:56 pm59 °FFog.7 mph93%29.85 "Hg6 mi
7:30 pm60 °FFog.8 mph90%29.84 "Hg6 mi
6:56 pm60 °FFog.12 mph93%29.85 "Hg4 mi
Weather by CustomWeather, © 2017

See weather overviewHow to use our weather pages